Wind_Speed
22 24 25 25 27 29 30 31 33 33 34 36 37 38 39 41 42 43 44 43 43 44 45 45 44 43 42 41 40 40 39 38 38 37 37 36 34 33 33 33 32 31 31 31
19 22 22 24 26 27 28 30 31 32 33 35 36 37 39 40 40 41 42 43 43 44 45 44 43 43 42 41 40 40 40 39 39 38 38 37 36 35 34 34 33 32 32 32
18 19 20 23 26 28 28 29 30 30 31 33 34 35 37 39 40 40 41 43 44 44 44 44 43 43 42 41 41 40 40 39 39 39 38 38 37 36 35 34 34 34 34 33
16 17 19 21 24 26 27 28 28 29 30 31 32 33 35 36 39 40 40 41 43 43 42 42 43 42 42 42 41 41 40 40 39 39 39 38 37 37 36 35 35 35 35 34
15 17 18 20 22 24 26 26 27 28 29 30 31 33 33 35 36 37 38 39 40 42 42 41 42 43 42 42 42 41 41 40 40 40 39 39 38 37 36 36 35 35 35 35
15 15 17 18 20 22 24 25 25 26 27 29 29 32 33 33 34 34 36 37 38 39 40 41 42 42 43 42 41 41 41 41 40 40 40 39 39 38 37 36 36 35 35 35
14 14 15 17 17 19 22 24 23 24 26 28 28 30 31 31 32 33 34 35 36 37 38 39 40 40 41 41 41 41 41 41 41 40 40 40 39 39 38 37 37 36 35 35
13 13 14 14 17 18 20 22 23 24 26 28 29 30 29 30 31 32 33 34 35 36 37 37 38 39 39 40 41 41 41 41 41 41 41 40 40 39 38 37 37 37 36 35
12 12 13 14 15 18 19 20 22 23 24 25 27 28 28 28 30 31 32 33 33 35 36 35 36 38 38 39 40 40 40 41 41 41 41 40 40 40 39 38 37 37 37 36
11 12 13 14 15 17 18 19 21 23 24 25 25 26 28 28 29 29 30 31 32 34 34 35 35 36 37 38 39 40 40 40 40 40 40 40 40 40 39 38 38 37 37 36
13 13 13 15 16 16 17 19 21 23 23 24 24 25 26 27 28 29 29 30 31 33 34 34 35 35 36 37 38 39 40 40 40 40 40 39 40 39 39 39 38 37 37 37
14 15 16 16 15 16 17 18 20 21 22 23 24 25 24 25 27 29 29 29 30 32 33 33 34 34 35 36 37 38 39 40 40 39 39 39 39 40 39 39 38 38 38 37
14 16 17 17 17 17 17 19 20 21 22 22 22 23 24 25 26 28 28 29 30 30 32 32 33 34 34 35 35 36 37 39 39 39 39 39 39 39 39 39 38 38 37 37
15 15 17 18 18 18 18 18 21 22 22 22 22 23 24 25 26 27 28 29 30 30 31 32 32 33 34 34 34 35 36 37 38 39 40 40 39 38 38 38 38 38 37 36
15 15 16 17 18 19 18 18 20 22 22 23 23 24 24 25 26 26 27 28 29 30 31 31 32 32 33 34 34 34 35 36 37 38 39 39 39 38 38 38 38 38 37 37
17 17 18 18 19 19 20 20 20 21 22 23 23 24 24 25 25 26 26 27 29 30 31 31 31 31 32 33 34 34 35 35 36 37 37 38 38 38 37 37 37 37 36 36
19 19 18 18 18 20 20 21 22 22 22 23 23 24 24 24 25 25 26 27 28 29 30 31 31 31 31 32 33 34 34 35 35 36 36 36 37 37 38 37 37 36 36 36
20 20 20 19 19 19 19 21 23 23 23 23 23 23 24 24 24 25 25 26 27 28 30 31 31 32 31 31 31 33 34 34 35 34 35 36 36 36 37 37 36 36 35 35
18 20 21 21 21 20 19 20 23 23 23 24 24 24 24 23 24 25 26 27 27 28 29 31 32 32 32 32 31 31 32 33 33 34 34 35 35 36 36 36 36 36 35 35
18 18 20 21 21 20 20 21 23 24 24 24 25 25 25 24 25 25 26 27 28 29 29 31 32 32 32 32 32 32 32 33 33 34 34 34 34 35 36 36 36 36 36 36
19 18 19 20 21 20 20 21 22 24 25 25 25 26 26 26 26 26 27 27 27 29 29 30 31 31 32 32 33 33 33 33 33 33 33 34 34 34 35 36 36 36 36 35
20 20 20 20 21 21 21 22 22 23 24 25 25 26 26 27 27 27 27 28 28 29 29 29 30 31 31 31 32 32 33 33 32 32 33 33 33 33 34 34 35 35 34 34
22 22 22 22 21 22 22 22 22 23 24 24 25 26 26 27 27 27 27 28 28 29 29 30 30 30 31 31 31 32 32 32 32 33 33 32 32 32 33 34 34 35 34 34
23 23 23 23 22 23 23 23 23 23 24 24 25 25 26 27 27 27 27 27 28 29 29 29 30 31 31 31 31 32 32 33 33 33 33 33 32 31 31 33 33 34 34 34
23 23 23 24 23 23 24 24 24 24 24 25 25 26 27 27 28 28 28 28 28 28 29 29 29 30 31 31 31 32 32 32 32 32 32 32 32 32 32 32 33 34 34 34
24 24 24 24 24 24 24 25 25 25 25 26 27 27 28 28 29 29 29 29 29 28 29 29 29 29 30 30 30 31 31 31 31 31 31 32 32 32 32 31 31 32 32 33
Wind_Direction
247 241 238 237 236 237 238 239 239 238 238 239 237 236 235 234 233 233 233 232 232 231 232 233 234 233 234 235 235 237 239 241 243 245 247 249 252 254 257 259 261 262 264 266
246 241 240 238 237 237 238 239 237 236 238 239 238 236 235 234 233 233 233 233 232 231 232 233 234 234 234 235 236 237 239 241 243 245 247 250 252 254 257 259 261 262 265 268
248 245 242 239 238 236 237 238 238 237 238 239 239 236 235 235 235 233 233 234 233 232 233 234 234 234 234 235 237 238 239 241 243 245 247 250 252 255 257 259 261 263 265 267
247 243 240 238 237 236 236 235 237 238 238 237 238 239 235 236 235 233 233 234 234 233 233 233 234 234 235 236 238 239 240 242 243 245 247 250 253 254 256 258 261 263 265 267
250 244 240 241 239 237 238 238 238 239 239 237 236 239 238 237 236 234 234 235 236 235 233 233 234 235 236 237 238 240 241 242 244 245 247 250 252 253 255 258 260 262 265 267
250 247 244 244 242 240 238 237 238 239 239 238 237 240 240 238 238 236 235 234 236 236 234 234 234 235 236 237 238 240 241 243 244 246 248 250 252 253 255 257 259 261 264 266
247 244 248 247 243 239 238 237 237 238 239 239 238 241 242 240 238 237 237 235 235 236 235 235 235 236 237 238 239 239 241 243 245 246 248 250 251 253 254 256 258 261 263 266
254 252 251 248 247 244 241 240 238 240 242 241 241 242 242 241 240 239 238 237 236 236 237 237 237 238 238 239 239 240 241 243 244 246 248 250 251 252 253 255 257 259 262 265
260 259 252 249 252 247 242 240 240 243 245 243 240 243 244 243 241 239 238 237 237 238 238 238 239 239 239 239 240 241 241 242 243 245 247 249 250 251 253 254 256 259 261 263
266 267 251 250 254 250 245 242 241 243 247 247 246 246 246 243 242 241 239 238 238 239 238 239 240 240 240 241 241 241 242 242 243 245 247 248 250 251 252 254 256 258 261 263
264 263 258 253 253 251 245 242 241 243 247 249 247 245 246 246 245 242 240 240 240 240 239 240 241 241 242 242 242 242 243 243 244 245 247 248 250 251 252 254 255 258 260 262
272 264 261 259 257 252 246 245 242 243 246 250 251 250 247 248 246 243 241 242 240 239 239 240 241 243 243 243 243 242 243 244 244 245 247 248 249 251 252 254 256 257 260 262
277 269 266 259 254 253 247 247 245 245 247 250 251 253 251 249 247 245 243 243 241 240 239 239 241 243 244 245 245 244 244 244 244 245 247 248 249 250 252 254 255 257 259 261
276 273 270 264 260 260 254 250 246 246 247 249 251 254 253 251 248 247 245 244 242 240 240 240 241 243 245 245 246 246 245 245 245 246 246 247 248 250 252 253 254 256 258 260
278 274 272 266 260 258 258 254 248 248 250 251 251 254 254 253 252 250 247 245 243 242 241 241 242 244 246 246 246 246 246 246 246 247 247 247 248 249 251 253 254 256 257 259
280 275 271 266 263 260 257 253 252 251 252 254 255 254 254 254 253 252 249 246 244 243 242 243 245 246 248 248 247 247 247 247 248 248 248 248 248 249 251 252 254 256 257 258
285 279 274 267 263 263 258 253 251 251 252 253 253 254 254 254 254 253 250 248 247 245 243 245 246 247 248 248 248 248 247 248 249 249 249 249 250 250 250 252 253 255 257 258
288 282 278 274 268 267 262 255 252 252 252 253 254 253 254 255 254 254 251 249 249 248 247 246 247 248 249 250 249 249 249 250 250 251 251 251 251 252 252 252 252 254 256 258
292 283 278 276 275 271 265 260 256 254 255 254 255 255 256 257 256 255 253 251 249 249 249 248 247 248 250 251 250 250 250 251 251 252 252 252 252 252 253 253 253 254 255 257
291 285 280 276 277 276 270 266 260 257 258 257 258 258 258 258 258 256 255 254 252 252 251 250 250 249 250 251 251 252 252 252 252 253 253 253 253 253 253 253 254 255 256 256
289 285 282 278 278 277 273 269 265 260 260 260 259 257 258 259 259 258 257 256 255 254 254 253 252 252 252 252 252 252 253 253 253 254 255 256 255 255 254 254 254 255 256 256
288 284 282 280 279 279 278 273 268 266 263 262 261 260 258 258 259 259 259 258 257 255 255 254 253 253 253 253 253 252 253 253 254 255 256 257 257 256 255 254 254 255 256 257
285 283 282 280 280 280 279 275 270 267 266 264 263 261 260 259 259 259 258 258 258 257 256 254 254 254 254 254 253 253 253 253 254 254 255 256 257 257 256 255 255 255 256 257
283 281 280 280 280 279 279 276 272 269 267 266 265 262 260 260 259 259 259 259 258 257 257 255 255 256 256 256 254 254 254 254 254 255 255 256 256 257 257 257 256 256 256 256
283 281 279 279 279 278 277 275 275 272 270 268 266 264 262 261 260 260 260 260 259 258 257 257 257 258 258 257 256 255 255 255 256 256 256 255 255 255 257 258 258 257 256 255
280 280 280 280 279 279 277 275 275 273 272 270 268 266 262 261 260 260 260 260 259 258 258 258 259 259 259 258 257 256 256 256 256 256 255 256 256 255 256 257 257 257 256 255
Height
5631 5634 5637 5641 5645 5649 5653 5656 5660 5664 5667 5671 5675 5679 5684 5689 5694 5700 5705 5710 5716 5721 5726 5731 5737 5742 5747 5752 5756 5760 5764 5768 5771 5775 5777 5780 5782 5784 5785 5787 5788 5789 5790 5790
5626 5629 5633 5636 5639 5643 5646 5649 5653 5657 5660 5663 5667 5672 5677 5681 5686 5692 5696 5702 5707 5713 5718 5724 5729 5735 5739 5744 5748 5753 5756 5760 5764 5767 5770 5772 5775 5777 5778 5780 5781 5782 5783 5783
5622 5626 5629 5631 5634 5637 5640 5643 5647 5651 5653 5656 5660 5665 5669 5674 5678 5683 5688 5693 5699 5705 5711 5716 5721 5726 5731 5736 5740 5745 5748 5752 5756 5759 5762 5764 5767 5769 5771 5773 5774 5775 5775 5776
5618 5621 5623 5626 5629 5632 5635 5639 5642 5645 5647 5650 5655 5658 5663 5666 5671 5676 5681 5686 5691 5697 5702 5708 5713 5718 5723 5728 5732 5737 5741 5744 5748 5751 5754 5756 5759 5761 5763 5765 5766 5767 5768 5768
5614 5617 5619 5622 5625 5627 5631 5634 5637 5639 5641 5645 5649 5652 5657 5659 5663 5669 5674 5679 5684 5689 5694 5700 5705 5710 5715 5719 5724 5728 5732 5736 5739 5743 5746 5748 5751 5753 5755 5756 5758 5759 5760 5760
5612 5613 5615 5618 5620 5623 5626 5629 5632 5633 5636 5639 5644 5647 5650 5653 5658 5663 5668 5673 5677 5681 5687 5692 5697 5702 5707 5711 5716 5720 5724 5727 5731 5734 5737 5740 5742 5744 5746 5748 5750 5751 5752 5752
5609 5611 5612 5614 5616 5619 5621 5624 5627 5628 5630 5634 5639 5641 5645 5648 5653 5657 5661 5666 5670 5674 5679 5684 5689 5694 5698 5703 5707 5711 5715 5718 5722 5725 5728 5731 5733 5735 5738 5740 5741 5742 5743 5744
5605 5608 5609 5611 5613 5615 5617 5620 5624 5625 5627 5631 5633 5635 5641 5643 5647 5651 5655 5659 5664 5668 5672 5677 5681 5685 5690 5694 5698 5702 5706 5709 5713 5716 5719 5722 5724 5727 5729 5731 5733 5734 5735 5736
5603 5605 5607 5608 5610 5612 5613 5616 5620 5622 5623 5626 5628 5632 5635 5638 5641 5645 5648 5653 5657 5661 5665 5669 5673 5677 5681 5685 5689 5693 5696 5700 5703 5707 5710 5712 5715 5718 5720 5722 5724 5725 5727 5728
5601 5603 5604 5605 5607 5608 5611 5613 5616 5617 5619 5621 5624 5627 5630 5633 5635 5639 5642 5646 5650 5654 5658 5662 5666 5669 5673 5677 5681 5684 5687 5691 5694 5697 5700 5703 5706 5708 5711 5713 5715 5717 5718 5719
5599 5600 5601 5602 5603 5605 5608 5610 5611 5613 5615 5618 5619 5624 5625 5627 5630 5633 5636 5640 5643 5647 5651 5654 5658 5661 5665 5668 5672 5675 5679 5682 5685 5688 5691 5694 5696 5699 5701 5704 5706 5707 5709 5710
5597 5598 5598 5600 5601 5601 5603 5605 5607 5610 5611 5613 5615 5620 5620 5622 5624 5627 5630 5633 5636 5640 5643 5647 5650 5653 5656 5660 5663 5666 5669 5673 5676 5679 5682 5684 5687 5689 5692 5694 5696 5698 5700 5701
5595 5595 5595 5596 5599 5599 5600 5602 5603 5605 5607 5609 5611 5616 5615 5617 5618 5620 5623 5626 5629 5633 5636 5639 5643 5646 5649 5652 5654 5657 5660 5663 5666 5670 5672 5675 5677 5680 5682 5685 5687 5689 5690 5691
5592 5592 5593 5594 5594 5594 5596 5598 5599 5601 5602 5604 5606 5608 5610 5611 5613 5615 5617 5619 5622 5625 5629 5632 5635 5638 5641 5643 5646 5648 5651 5654 5657 5660 5663 5665 5668 5670 5673 5675 5677 5679 5681 5682
5589 5589 5589 5590 5591 5591 5592 5593 5594 5596 5598 5600 5602 5603 5605 5606 5607 5609 5611 5613 5616 5619 5622 5625 5628 5630 5633 5635 5638 5640 5642 5645 5648 5650 5653 5656 5658 5661 5663 5665 5667 5669 5671 5672
5585 5585 5586 5587 5587 5587 5588 5589 5590 5592 5593 5595 5597 5599 5599 5600 5602 5603 5605 5607 5609 5612 5614 5617 5620 5622 5625 5627 5629 5632 5634 5636 5639 5641 5644 5646 5649 5651 5654 5656 5658 5660 5661 5663
5581 5581 5581 5582 5582 5582 5584 5585 5586 5587 5589 5590 5591 5594 5594 5595 5596 5597 5599 5601 5603 5605 5607 5610 5612 5614 5617 5619 5621 5623 5625 5628 5630 5632 5635 5637 5639 5641 5644 5646 5648 5650 5652 5653
5578 5577 5576 5577 5578 5578 5582 5580 5581 5582 5584 5585 5585 5587 5588 5589 5590 5591 5593 5594 5596 5598 5600 5602 5604 5606 5608 5611 5613 5615 5617 5619 5621 5623 5625 5627 5629 5632 5634 5636 5638 5640 5642 5644
5573 5573 5572 5572 5572 5573 5575 5575 5576 5577 5578 5579 5580 5581 5582 5582 5583 5585 5586 5588 5589 5591 5593 5594 5596 5598 5600 5602 5605 5607 5609 5610 5613 5614 5616 5618 5620 5622 5624 5626 5628 5630 5632 5634
5570 5569 5569 5567 5567 5568 5570 5570 5569 5571 5572 5573 5573 5574 5575 5576 5578 5579 5579 5581 5582 5583 5585 5586 5588 5590 5592 5594 5596 5598 5600 5602 5604 5606 5607 5609 5610 5612 5614 5616 5618 5620 5622 5624
5566 5565 5564 5562 5562 5563 5564 5563 5564 5566 5567 5567 5567 5568 5568 5569 5571 5572 5572 5573 5574 5576 5577 5578 5580 5582 5584 5586 5588 5590 5592 5593 5595 5596 5598 5600 5601 5603 5604 5606 5608 5610 5612 5614
5561 5560 5559 5558 5558 5560 5558 5557 5558 5559 5559 5559 5560 5561 5561 5562 5563 5564 5565 5566 5567 5568 5569 5570 5572 5574 5576 5577 5579 5581 5583 5584 5586 5588 5589 5591 5592 5593 5595 5597 5599 5601 5602 5604
5556 5556 5555 5555 5556 5553 5552 5551 5551 5552 5552 5552 5553 5553 5554 5555 5556 5557 5557 5558 5559 5560 5561 5562 5564 5566 5567 5569 5570 5572 5574 5575 5577 5579 5580 5582 5583 5584 5585 5587 5589 5591 5593 5595
5551 5549 5549 5548 5548 5547 5546 5545 5545 5545 5545 5545 5545 5546 5546 5547 5548 5549 5550 5550 5551 5552 5553 5554 5556 5557 5559 5560 5561 5563 5564 5566 5568 5569 5571 5572 5574 5575 5576 5578 5579 5581 5583 5585
5544 5543 5542 5542 5541 5540 5539 5538 5538 5538 5538 5538 5538 5538 5538 5539 5540 5541 5542 5542 5543 5544 5545 5546 5548 5549 5550 5551 5552 5553 5555 5557 5558 5560 5561 5563 5564 5566 5567 5569 5570 5571 5573 5575
5538 5536 5536 5535 5534 5533 5533 5532 5531 5531 5530 5530 5530 5530 5530 5531 5532 5533 5534 5534 5535 5536 5537 5538 5539 5540 5541 5542 5543 5544 5546 5547 5549 5550 5552 5553 5555 5556 5558 5559 5561 5562 5564 5565